| time (UTC) | temp F | wind direction | speed MPH | gust MPH | rain 1hr in | rain 24hr in | rain mn in | humidity % | barometer mb |
| 20260507070019 | 49 | 311 | 0.0 | 2.0 | 0.00 | 0.30 | 0.00 | 90 | 1010.0 |
| 20260507064514 | 49 | 334 | 1.0 | 4.0 | 0.00 | 0.30 | 0.00 | 90 | 1010.2 |
| 20260507063014 | 50 | 349 | 0.0 | 1.0 | 0.00 | 0.30 | 0.00 | 90 | 1009.9 |
| 20260507061514 | 50 | 352 | 0.0 | 4.0 | 0.00 | 0.30 | 0.00 | 89 | 1009.7 |
| 20260507060011 | 50 | 238 | 0.0 | 2.0 | 0.00 | 0.30 | 0.00 | 89 | 1010.1 |
| 20260507054509 | 50 | 304 | 0.0 | 2.0 | 0.00 | 0.30 | 0.00 | 90 | 1010.3 |
| 20260507053008 | 50 | 326 | 0.0 | 3.0 | 0.00 | 0.30 | 0.00 | 90 | 1010.2 |
| 20260507051506 | 51 | 288 | 0.0 | 1.0 | 0.00 | 0.30 | 0.00 | 91 | 1010.0 |
| 20260507050003 | 51 | 323 | 0.0 | 2.0 | 0.00 | 0.30 | 0.00 | 91 | 1009.8 |
| 20260507044504 | 52 | 97 | 0.0 | 2.0 | 0.00 | 0.30 | 0.00 | 91 | 1010.0 |
| 20260507043104 | 53 | 262 | 0.0 | 1.0 | 0.00 | 0.30 | 0.00 | 92 | 1010.1 |
| 20260507041559 | 53 | 270 | 0.0 | 2.0 | 0.00 | 0.30 | 0.00 | 92 | 1010.1 |
| 20260507040051 | 54 | 293 | 0.0 | 2.0 | 0.01 | 0.30 | 0.00 | 92 | 1009.6 |
| 20260507034555 | 55 | 209 | 0.0 | 3.0 | 0.01 | 0.30 | 0.30 | 92 | 1009.4 |
| 20260507033046 | 56 | 310 | 0.0 | 3.0 | 0.01 | 0.30 | 0.30 | 93 | 1009.2 |
| 20260507031543 | 58 | 224 | 1.0 | 4.0 | 0.01 | 0.30 | 0.30 | 93 | 1009.4 |
| 20260507030040 | 59 | 271 | 0.0 | 1.0 | 0.00 | 0.28 | 0.28 | 94 | 1008.9 |
| 20260507024544 | 59 | 211 | 0.0 | 4.0 | 0.00 | 0.28 | 0.28 | 94 | 1008.5 |
| 20260507023039 | 59 | 193 | 0.0 | 1.0 | 0.00 | 0.28 | 0.28 | 93 | 1008.3 |
| 20260507021540 | 59 | 290 | 0.0 | 3.0 | 0.00 | 0.28 | 0.28 | 93 | 1008.4 |
| 20260507020045 | 59 | 98 | 0.0 | 3.0 | 0.00 | 0.28 | 0.28 | 93 | 1008.5 |
| 20260507014537 | 59 | 121 | 0.0 | 5.0 | 0.00 | 0.28 | 0.28 | 93 | 1008.7 |
| 20260507013038 | 59 | 259 | 0.0 | 4.0 | 0.00 | 0.28 | 0.28 | 93 | 1008.8 |
| 20260507011536 | 59 | 193 | 0.0 | 3.0 | 0.00 | 0.28 | 0.28 | 93 | 1008.8 |
| 20260507010040 | 59 | 343 | 0.0 | 3.0 | 0.00 | 0.28 | 0.28 | 93 | 1008.8 |
| 20260507004535 | 59 | 200 | 0.0 | 3.0 | 0.01 | 0.28 | 0.28 | 93 | 1008.7 |
| 20260507003034 | 59 | 360 | 0.0 | 3.0 | 0.02 | 0.28 | 0.28 | 93 | 1008.8 |
| 20260507001539 | 59 | 237 | 0.0 | 3.0 | 0.04 | 0.28 | 0.28 | 93 | 1008.7 |
| 20260507000034 | 59 | 336 | 0.0 | 3.0 | 0.05 | 0.28 | 0.28 | 93 | 1008.5 |
| 20260506234531 | 59 | 121 | 0.0 | 5.0 | 0.04 | 0.28 | 0.28 | 93 | 1008.4 |
| 20260506233031 | 59 | 264 | 0.0 | 6.0 | 0.04 | 0.27 | 0.27 | 93 | 1008.5 |
| 20260506231529 | 59 | 209 | 1.0 | 6.0 | 0.03 | 0.25 | 0.25 | 93 | 1008.8 |
| 20260506230031 | 59 | 295 | 1.0 | 5.0 | 0.05 | 0.24 | 0.24 | 92 | 1008.7 |
| 20260506224527 | 59 | 28 | 0.0 | 6.0 | 0.07 | 0.24 | 0.24 | 92 | 1008.8 |
| 20260506223026 | 60 | 105 | 1.0 | 7.0 | 0.06 | 0.23 | 0.23 | 92 | 1008.8 |
| 20260506221525 | 60 | 299 | 0.0 | 4.0 | 0.06 | 0.22 | 0.22 | 92 | 1009.0 |
| 20260506220023 | 60 | 131 | 0.0 | 2.0 | 0.04 | 0.19 | 0.19 | 92 | 1009.1 |
| 20260506214522 | 60 | 288 | 0.0 | 7.0 | 0.03 | 0.17 | 0.17 | 91 | 1009.2 |
| 20260506213020 | 60 | 312 | 0.0 | 4.0 | 0.05 | 0.17 | 0.17 | 91 | 1009.4 |
| 20260506211518 | 61 | 255 | 0.0 | 1.0 | 0.06 | 0.16 | 0.16 | 91 | 1009.7 |
| 20260506210021 | 61 | 288 | 0.0 | 2.0 | 0.07 | 0.15 | 0.15 | 90 | 1009.8 |
| 20260506204516 | 61 | 296 | 0.0 | 8.0 | 0.07 | 0.14 | 0.14 | 90 | 1009.9 |
| 20260506203016 | 62 | 267 | 0.0 | 0.0 | 0.06 | 0.12 | 0.12 | 90 | 1009.9 |
| 20260506201515 | 62 | 283 | 0.0 | 0.0 | 0.06 | 0.10 | 0.10 | 90 | 1009.9 |
| 20260506200014 | 62 | 314 | 0.0 | 0.0 | 0.05 | 0.08 | 0.08 | 90 | 1009.7 |
| 20260506194514 | 63 | 172 | 0.0 | 0.0 | 0.06 | 0.07 | 0.07 | 90 | 1009.9 |
| 20260506193013 | 63 | 30 | 0.0 | 0.0 | 0.05 | 0.06 | 0.06 | 89 | 1009.8 |
| 20260506191512 | 63 | 295 | 0.0 | 0.0 | 0.04 | 0.04 | 0.04 | 88 | 1010.2 |
| 20260506190011 | 63 | 295 | 0.0 | 0.0 | 0.03 | 0.03 | 0.03 | 86 | 1010.2 |
| 20260506184511 | 64 | 308 | 0.0 | 0.0 | 0.01 | 0.01 | 0.01 | 82 | 1010.4 |
| 20260506183010 | 67 | 291 | 0.0 | 0.0 | 0.01 | 0.01 | 0.01 | 75 | 1009.7 |
| 20260506181507 | 70 | 252 | 0.0 | 6.0 | 0.00 | 0.00 | 0.00 | 64 | 1010.1 |
| 20260506180006 | 73 | 9 | 1.0 | 12.0 | 0.00 | 0.00 | 0.00 | 54 | 1010.0 |
| 20260506174505 | 73 | 114 | 0.0 | 6.0 | 0.00 | 0.00 | 0.00 | 52 | 1009.9 |
| 20260506173005 | 74 | 246 | 0.0 | 7.0 | 0.00 | 0.00 | 0.00 | 52 | 1010.0 |
| 20260506171506 | 73 | 164 | 0.0 | 11.0 | 0.00 | 0.00 | 0.00 | 53 | 1010.4 |
| 20260506170107 | 73 | 315 | 0.0 | 4.0 | 0.00 | 0.00 | 0.00 | 58 | 1010.4 |
| 20260506164602 | 72 | 259 | 0.0 | 5.0 | 0.00 | 0.00 | 0.00 | 58 | 1010.5 |
| 20260506163105 | 72 | 79 | 0.0 | 3.0 | 0.00 | 0.00 | 0.00 | 58 | 1010.8 |
| 20260506161605 | 72 | 244 | 0.0 | 3.0 | 0.00 | 0.00 | 0.00 | 58 | 1011.0 |
| 20260506160050 | 72 | 279 | 0.0 | 3.0 | 0.00 | 0.00 | 0.00 | 59 | 1011.5 |
| 20260506154607 | 72 | 236 | 0.0 | 1.0 | 0.00 | 0.00 | 0.00 | 59 | 1011.7 |
| 20260506153044 | 71 | 230 | 0.0 | 3.0 | 0.00 | 0.00 | 0.00 | 61 | 1011.9 |
| 20260506151545 | 70 | 217 | 0.0 | 7.0 | 0.00 | 0.00 | 0.00 | 61 | 1012.1 |
| 20260506150050 | 70 | 288 | 0.0 | 8.0 | 0.00 | 0.00 | 0.00 | 62 | 1012.3 |
| 20260506144551 | 70 | 28 | 0.0 | 6.0 | 0.00 | 0.00 | 0.00 | 62 | 1012.1 |
| 20260506143042 | 70 | 82 | 0.0 | 6.0 | 0.00 | 0.00 | 0.00 | 63 | 1012.0 |
| 20260506141539 | 69 | 1 | 0.0 | 6.0 | 0.00 | 0.00 | 0.00 | 65 | 1011.8 |
| 20260506140048 | 67 | 110 | 0.0 | 3.0 | 0.00 | 0.00 | 0.00 | 69 | 1011.9 |
| 20260506134537 | 67 | 96 | 0.0 | 7.0 | 0.00 | 0.00 | 0.00 | 68 | 1012.2 |
| 20260506133043 | 66 | 261 | 0.0 | 2.0 | 0.00 | 0.00 | 0.00 | 69 | 1012.5 |
| 20260506131535 | 66 | 264 | 0.0 | 2.0 | 0.00 | 0.00 | 0.00 | 69 | 1012.3 |
| 20260506130030 | 66 | 96 | 0.0 | 12.0 | 0.00 | 0.00 | 0.00 | 70 | 1012.4 |
| 20260506124529 | 65 | 229 | 0.0 | 1.0 | 0.00 | 0.00 | 0.00 | 70 | 1012.2 |
| 20260506123029 | 65 | 239 | 0.0 | 3.0 | 0.00 | 0.00 | 0.00 | 70 | 1012.6 |
| 20260506121530 | 64 | 292 | 0.0 | 3.0 | 0.00 | 0.00 | 0.00 | 72 | 1012.5 |
| 20260506120036 | 64 | 260 | 0.0 | 9.0 | 0.00 | 0.00 | 0.00 | 73 | 1012.8 |
| 20260506114526 | 63 | 266 | 0.0 | 1.0 | 0.00 | 0.00 | 0.00 | 73 | 1012.7 |
| 20260506113026 | 63 | 29 | 0.0 | 2.0 | 0.00 | 0.00 | 0.00 | 74 | 1012.9 |
| 20260506111526 | 62 | 283 | 0.0 | 1.0 | 0.00 | 0.00 | 0.00 | 74 | 1012.8 |
| 20260506110025 | 61 | 253 | 0.0 | 0.0 | 0.00 | 0.00 | 0.00 | 75 | 1013.0 |
| 20260506104523 | 61 | 257 | 0.0 | 1.0 | 0.00 | 0.00 | 0.00 | 75 | 1012.9 |
| 20260506103030 | 61 | 342 | 0.0 | 0.0 | 0.00 | 0.00 | 0.00 | 75 | 1013.0 |
| 20260506101533 | 61 | 326 | 0.0 | 0.0 | 0.00 | 0.00 | 0.00 | 75 | 1013.0 |
| 20260506100029 | 61 | 101 | 0.0 | 0.0 | 0.00 | 0.00 | 0.00 | 75 | 1013.0 |
| 20260506094521 | 61 | 24 | 0.0 | 0.0 | 0.00 | 0.00 | 0.00 | 74 | 1012.8 |
| 20260506093019 | 61 | 248 | 0.0 | 0.0 | 0.00 | 0.00 | 0.00 | 74 | 1013.0 |
| 20260506091519 | 61 | 76 | 0.0 | 3.0 | 0.00 | 0.00 | 0.00 | 73 | 1012.8 |
| 20260506090016 | 62 | 249 | 0.0 | 1.0 | 0.00 | 0.00 | 0.00 | 72 | 1012.8 |
| 20260506084518 | 62 | 212 | 0.0 | 2.0 | 0.00 | 0.00 | 0.00 | 72 | 1012.8 |
| 20260506083014 | 62 | 164 | 0.0 | 1.0 | 0.00 | 0.00 | 0.00 | 71 | 1012.8 |
| 20260506081517 | 62 | 229 | 0.0 | 6.0 | 0.00 | 0.00 | 0.00 | 70 | 1012.8 |
| 20260506073012 | 63 | 3 | 0.0 | 0.0 | 0.00 | 0.00 | 0.00 | 67 | 1012.5 |
| 20260506071510 | 63 | 141 | 0.0 | 1.0 | 0.00 | 0.00 | 0.00 | 67 | 1012.4 |